TimeCST,TemperatureF,Dew PointF,Humidity,Sea Level PressureIn,VisibilityMPH,Wind Direction,Wind SpeedMPH,Gust SpeedMPH,PrecipitationIn,Events,Conditions,WindDirDegrees,DateUTC
12:00 AM,73,57,47,29.84,12,ENE,34.5,,,,,70,2014-03-27 06:00:00
12:00 AM,73.4,57.2,57,30.02,-9999.0,ENE,11.5,23.0,N/A,,Clear,70,2014-03-27 06:00:00
1:00 AM,73.4,55.4,53,30.00,-9999.0,East,9.2,-,N/A,,Clear,80,2014-03-27 07:00:00
2:00 AM,71.6,57.2,60,29.99,-9999.0,East,9.2,-,N/A,,Clear,100,2014-03-27 08:00:00
3:00 AM,70,55,50,29.83,12,East,11.5,,,,,90,2014-03-27 09:00:00
3:00 AM,69.8,55.4,60,29.99,-9999.0,East,11.5,-,N/A,,Clear,90,2014-03-27 09:00:00
4:00 AM,69.8,55.4,60,30.00,-9999.0,East,9.2,-,N/A,,Clear,90,2014-03-27 10:00:00
5:00 AM,69.8,55.4,60,30.01,-9999.0,East,11.5,23.0,N/A,,Clear,80,2014-03-27 11:00:00
6:00 AM,70,55,50,29.89,12,East,25.3,,,,Clear,90,2014-03-27 12:00:00
6:00 AM,69.8,55.4,60,30.03,-9999.0,East,13.8,25.3,N/A,,Clear,90,2014-03-27 12:00:00
7:00 AM,71.6,55.4,57,30.05,6.2,East,11.5,25.3,N/A,,Mostly Cloudy,100,2014-03-27 13:00:00
8:00 AM,75.2,53.6,47,30.07,6.2,ESE,11.5,23.0,N/A,,Mostly Cloudy,110,2014-03-27 14:00:00
9:00 AM,79,49,24,29.91,12,East,13.8,,,,Clear,80,2014-03-27 15:00:00
9:00 AM,78.8,48.2,34,30.07,-9999.0,East,13.8,25.3,N/A,,Clear,80,2014-03-27 15:00:00
10:00 AM,82.4,50.0,32,30.07,-9999.0,ENE,17.3,28.8,N/A,,Clear,70,2014-03-27 16:00:00
11:00 AM,84.2,50.0,30,30.04,-9999.0,ENE,21.9,33.4,N/A,,Clear,60,2014-03-27 17:00:00
12:00 PM,84,51,22,29.85,12,ENE,19.6,,,,Scattered Clouds,70,2014-03-27 18:00:00
12:00 PM,84.2,51.8,33,30.02,6.2,ENE,19.6,34.5,N/A,,Partly Cloudy,70,2014-03-27 18:00:00
1:00 PM,84.2,51.8,33,29.99,6.2,ENE,12.7,35.7,N/A,,Partly Cloudy,60,2014-03-27 19:00:00
2:00 PM,84.2,51.8,33,29.96,6.2,ENE,24.2,36.8,N/A,,Partly Cloudy,60,2014-03-27 20:00:00
3:00 PM,83,52,24,29.78,12,NE,29.9,,,,Scattered Clouds,50,2014-03-27 21:00:00
3:00 PM,84.2,51.8,33,29.95,6.2,NE,27.6,41.4,N/A,,Partly Cloudy,50,2014-03-27 21:00:00
4:00 PM,80.6,53.6,39,29.93,6.2,NE,27.6,39.1,N/A,,Partly Cloudy,50,2014-03-27 22:00:00
5:00 PM,78.8,53.6,42,29.96,6.2,NE,26.5,38.0,N/A,,Partly Cloudy,50,2014-03-27 23:00:00
6:00 PM,75,54,38,29.85,12,ENE,23.0,,,,Scattered Clouds,60,2014-03-28 00:00:00
6:00 PM,75.2,53.6,47,29.99,6.2,ENE,23.0,34.5,N/A,,Partly Cloudy,60,2014-03-28 00:00:00
7:00 PM,73.4,55.4,53,30.01,6.2,ENE,15.0,26.5,N/A,,Partly Cloudy,60,2014-03-28 01:00:00
8:00 PM,-9999,-9999,N/A,30.03,6.2,ENE,12.7,24.2,N/A,,Partly Cloudy,70,2014-03-28 02:00:00
9:00 PM,71,55,47,29.89,12,East,11.5,,,,Scattered Clouds,90,2014-03-28 03:00:00
9:00 PM,71.6,55.4,57,30.03,6.2,East,11.5,-,N/A,,Unknown,90,2014-03-28 03:00:00
10:00 PM,69.8,55.4,60,30.04,6.2,East,15.0,-,N/A,,Partly Cloudy,80,2014-03-28 04:00:00
11:00 PM,69.8,55.4,60,30.02,6.2,ENE,16.1,-,N/A,,Partly Cloudy,70,2014-03-28 05:00:00